Lid_Strength_Index
3 2 2 3 3 4 5 4 8 5 4 6 5 7 9 10 10 9 9 9 9 10 10 10 10 11 10 10 11 12 11 12 13 12 12 11 11 11 11 13 13 12 13 13
3 3 3 3 3 4 2 5 6 5 5 8 8 9 10 10 10 10 10 10 10 10 11 12 12 11 10 11 11 11 11 12 13 13 12 12 13 11 11 11 12 14 14 13
3 3 4 4 5 5 5 6 8 7 6 7 8 9 10 11 10 10 10 11 10 11 11 11 12 11 11 11 11 11 11 12 13 14 13 12 12 12 11 12 13 13 12 11
3 3 4 4 5 5 5 6 7 8 8 8 8 8 9 11 12 11 10 11 11 11 12 12 12 11 11 11 10 11 11 13 12 11 11 12 12 13 12 13 12 14 12 12
3 3 4 5 5 6 5 7 8 9 9 10 9 11 10 11 11 10 11 11 11 11 12 11 12 11 11 11 10 11 10 13 12 13 12 13 14 13 12 12 12 12 12 12
3 3 4 4 5 6 4 6 7 6 11 9 9 9 10 11 10 11 11 11 11 12 11 11 10 10 10 10 11 11 12 12 13 14 13 13 14 11 11 11 10 11 12 9
3 3 3 4 5 5 3 5 5 6 8 8 8 10 10 10 11 11 11 10 11 10 9 9 10 10 11 10 10 9 11 12 12 14 13 16 11 8 9 11 10 9 9 8
3 3 3 4 5 5 4 4 4 5 7 7 9 10 10 10 10 11 11 11 10 9 10 11 12 12 12 12 12 11 11 12 13 14 13 11 9 10 10 11 11 7 8 8
3 3 4 4 4 5 4 6 5 5 6 8 8 9 9 9 10 11 11 10 9 9 10 11 13 12 11 12 13 11 11 10 11 11 15 16 10 9 8 9 11 8 8 8
3 3 4 4 4 5 3 5 4 5 6 8 8 8 9 8 8 8 10 10 10 9 9 11 11 11 10 11 11 12 12 11 12 12 14 11 7 8 8 12 11 7 7 7
3 3 3 4 4 4 4 5 4 4 5 7 8 8 8 8 7 8 8 9 9 9 9 9 9 10 9 10 9 10 11 12 12 11 13 16 7 9 11 8 6 6 6 6
3 3 3 4 4 4 4 4 3 4 3 5 5 5 5 6 6 5 6 6 7 5 7 7 7 10 8 10 12 8 11 9 10 9 11 6 6 7 6 6 6 6 6 6
3 3 3 3 3 4 3 3 3 2 4 4 4 5 4 3 4 4 6 5 5 6 5 6 6 10 7 11 9 9 8 7 10 9 8 7 6 5 5 5 6 6 5 6
4 3 2 3 3 3 2 3 3 3 4 6 6 4 5 4 4 4 5 6 6 6 6 7 7 9 6 9 8 10 8 9 9 10 8 7 6 6 6 6 5 5 5 5
4 3 3 2 3 3 2 3 3 3 4 6 6 5 5 5 5 5 5 6 6 6 7 8 9 7 8 8 8 10 8 9 10 10 8 8 8 6 5 5 6 6 6 6
4 4 4 1 2 3 2 5 3 2 3 5 8 5 6 6 6 6 6 5 6 6 7 7 7 7 8 10 11 8 7 7 7 8 7 7 6 5 5 6 5 5 5 5
4 4 4 3 2 2 5 6 4 3 2 6 8 8 7 7 6 6 6 6 6 7 7 8 8 8 9 9 11 8 7 7 7 6 6 7 6 7 5 5 5 4 5 5
4 4 4 3 4 4 5 3 3 3 4 6 10 9 9 7 8 8 7 7 7 8 8 8 9 8 8 12 8 7 7 7 6 6 6 6 5 5 5 4 4 5 6 6
4 3 4 4 4 6 6 5 4 2 4 9 10 11 10 7 8 7 8 7 10 8 10 9 8 10 12 9 8 7 7 7 6 6 5 5 5 5 5 5 5 6 6 6
4 4 6 8 6 4 4 5 7 7 6 6 10 8 10 8 8 9 8 9 10 12 10 9 11 11 8 7 6 6 5 5 5 6 6 5 5 5 5 5 5 5 6 6
4 6 8 5 4 5 7 10 11 10 12 9 9 10 10 8 10 10 8 11 11 14 11 12 12 12 8 6 6 4 4 4 4 4 3 3 3 4 5 5 5 6 6 7
5 5 4 4 7 9 11 12 11 13 13 10 11 10 10 9 8 10 10 12 12 15 9 13 14 9 6 5 5 4 4 4 4 3 3 3 3 3 4 4 5 6 6 6
4 6 9 9 10 14 15 16 14 13 11 10 10 11 10 9 8 9 10 13 13 9 13 14 10 7 6 5 5 4 3 3 4 4 3 2 3 3 4 4 4 5 6 6
8 12 15 13 15 13 12 12 11 9 9 10 9 11 10 9 10 10 13 10 10 14 15 12 8 7 6 4 4 4 4 3 3 3 3 3 3 3 3 4 4 5 6 6
12 11 15 14 11 10 10 9 10 9 7 8 10 10 9 11 12 11 11 13 15 12 12 9 6 6 5 5 4 4 4 3 3 3 3 3 3 3 4 4 4 5 6 6
10 11 12 11 11 11 11 10 10 8 8 7 7 10 12 12 11 13 13 13 13 11 8 6 5 5 5 4 4 3 3 3 3 3 3 3 3 3 4 4 5 5 6 6
12 12 10 10 10 10 9 9 9 7 8 10 9 13 13 10 13 13 10 11 9 7 6 5 4 4 4 3 3 3 3 3 3 3 3 3 2 3 4 5 5 5 5 6